SWA1313 KDEN-KOMA

Flight info

Callsign SWA1313
Flight time 1h 7m
Altitude 37000
Route EEONS8 WYNDM HCT GRI HOWRY3
Aircraft B738/M-SDE2E3FGHIRWXY/LB1

Departure

Time 2026-04-26 16:56
Airport Denver International Airport (KDEN)

Arrival

Time 2026-04-26 18:04
Airport Eppley Airfield (KOMA)
Time Latitude Longitude Altitude Speed Heading
2026-04-26 16:34 39.86255 -104.67153 5365 ft 0 kts 360°
2026-04-26 16:45 39.86254 -104.67152 5365 ft 1 kts 360°
2026-04-26 16:46 39.86238 -104.67152 5363 ft 3 kts 360°
2026-04-26 16:46 39.86218 -104.67152 5364 ft 3 kts 360°
2026-04-26 16:46 39.86198 -104.67152 5363 ft 3 kts 360°
2026-04-26 16:46 39.86177 -104.67152 5361 ft 3 kts 360°
2026-04-26 16:47 39.86165 -104.67152 5362 ft 0 kts 360°
2026-04-26 16:49 39.86166 -104.67152 5363 ft 0 kts
2026-04-26 16:50 39.86178 -104.67132 5361 ft 8 kts 70°
2026-04-26 16:50 39.86158 -104.67060 5364 ft 10 kts 114°
2026-04-26 16:50 39.86132 -104.66964 5362 ft 13 kts 97°
2026-04-26 16:50 39.86131 -104.66832 5365 ft 16 kts 90°
2026-04-26 16:51 39.86130 -104.66674 5365 ft 19 kts 91°
2026-04-26 16:51 39.86111 -104.66499 5365 ft 21 kts 98°
2026-04-26 16:51 39.86108 -104.66338 5365 ft 11 kts 90°
2026-04-26 16:51 39.86109 -104.66238 5364 ft 2 kts 64°
2026-04-26 16:52 39.86158 -104.66227 5364 ft 18 kts
2026-04-26 16:52 39.86201 -104.66227 5364 ft 19 kts
2026-04-26 16:52 39.86414 -104.66224 5363 ft 18 kts
2026-04-26 16:52 39.86541 -104.66223 5364 ft 19 kts
2026-04-26 16:53 39.86673 -104.66221 5365 ft 19 kts
2026-04-26 16:53 39.86801 -104.66220 5363 ft 18 kts
2026-04-26 16:53 39.86925 -104.66218 5363 ft 17 kts
2026-04-26 16:53 39.87044 -104.66216 5363 ft 17 kts
2026-04-26 16:54 39.87160 -104.66216 5364 ft 16 kts
2026-04-26 16:54 39.87270 -104.66215 5363 ft 16 kts
2026-04-26 16:54 39.87377 -104.66213 5363 ft 15 kts
2026-04-26 16:54 39.87479 -104.66211 5364 ft 14 kts
2026-04-26 16:55 39.87593 -104.66209 5363 ft 18 kts
2026-04-26 16:55 39.87697 -104.66207 5364 ft 14 kts
2026-04-26 16:55 39.87760 -104.66129 5365 ft 15 kts 82°
2026-04-26 16:55 39.87758 -104.65702 5364 ft 86 kts 90°
2026-04-26 16:56 39.87739 -104.63584 5493 ft 182 kts 90°
2026-04-26 16:56 39.87718 -104.61860 6237 ft 196 kts 89°
2026-04-26 16:56 39.87700 -104.60114 7242 ft 191 kts 90°
2026-04-26 16:57 39.87700 -104.58289 7769 ft 215 kts 85°
2026-04-26 16:57 39.88033 -104.56274 7939 ft 240 kts 73°
2026-04-26 16:57 39.89139 -104.51719 8521 ft 286 kts 72°
2026-04-26 16:58 39.89736 -104.49204 9226 ft 294 kts 73°
2026-04-26 16:58 39.90131 -104.47499 9665 ft 302 kts 73°
2026-04-26 16:58 39.91533 -104.41322 9975 ft 307 kts 73°
2026-04-26 16:59 39.92129 -104.38657 10021 ft 309 kts 74°
2026-04-26 16:59 39.93383 -104.32936 10688 ft 342 kts 74°
2026-04-26 17:00 39.94697 -104.26913 11812 ft 346 kts 73°
2026-04-26 17:00 39.96028 -104.20809 11934 ft 351 kts 73°
2026-04-26 17:00 39.96683 -104.17803 11923 ft 349 kts 73°
2026-04-26 17:01 39.97332 -104.14752 11929 ft 349 kts 76°
2026-04-26 17:01 39.97766 -104.11604 12278 ft 357 kts 82°
2026-04-26 17:01 39.98075 -104.08390 13167 ft 356 kts 83°
2026-04-26 17:01 39.98372 -104.05174 13979 ft 358 kts 83°
2026-04-26 17:02 39.98692 -104.01944 14676 ft 362 kts 82°
2026-04-26 17:02 39.99037 -103.98677 15377 ft 365 kts 82°
2026-04-26 17:02 39.99394 -103.95386 16070 ft 369 kts 82°
2026-04-26 17:02 39.99759 -103.92055 16761 ft 372 kts 81°
2026-04-26 17:03 40.00196 -103.88742 17570 ft 373 kts 79°
2026-04-26 17:03 40.00737 -103.85399 18135 ft 380 kts 78°
2026-04-26 17:03 40.01324 -103.82013 18647 ft 386 kts 78°
2026-04-26 17:03 40.01902 -103.78568 19207 ft 391 kts 78°
2026-04-26 17:04 40.02466 -103.75087 19758 ft 395 kts 78°
2026-04-26 17:04 40.03043 -103.71559 20283 ft 400 kts 78°
2026-04-26 17:04 40.03628 -103.67995 20813 ft 405 kts 78°
2026-04-26 17:04 40.04222 -103.64382 21338 ft 409 kts 78°
2026-04-26 17:05 40.04822 -103.60728 21857 ft 414 kts 78°
2026-04-26 17:05 40.05427 -103.57034 22379 ft 418 kts 78°
2026-04-26 17:05 40.06035 -103.53306 22888 ft 423 kts 78°
2026-04-26 17:05 40.06650 -103.49528 23373 ft 427 kts 78°
2026-04-26 17:06 40.07269 -103.45718 23804 ft 431 kts 78°
2026-04-26 17:06 40.07893 -103.41867 24240 ft 435 kts 78°
2026-04-26 17:06 40.08519 -103.37994 24673 ft 438 kts 78°
2026-04-26 17:06 40.09141 -103.34135 25088 ft 441 kts 78°
2026-04-26 17:07 40.09782 -103.30149 25506 ft 445 kts 78°
2026-04-26 17:07 40.10410 -103.26232 25914 ft 448 kts 78°
2026-04-26 17:07 40.11057 -103.22188 26314 ft 451 kts 78°
2026-04-26 17:07 40.11692 -103.18214 26698 ft 454 kts 78°
2026-04-26 17:08 40.12345 -103.14115 27095 ft 457 kts 78°
2026-04-26 17:08 40.12986 -103.10088 27468 ft 460 kts 78°
2026-04-26 17:08 40.13646 -103.05924 27835 ft 463 kts 78°
2026-04-26 17:08 40.14290 -103.01851 28187 ft 466 kts 78°
2026-04-26 17:09 40.14947 -102.97689 28545 ft 468 kts 78°
2026-04-26 17:09 40.15391 -102.94869 28791 ft 470 kts 78°
2026-04-26 17:09 40.16267 -102.89296 29234 ft 474 kts 78°
2026-04-26 17:09 40.16929 -102.85066 29575 ft 477 kts 78°
2026-04-26 17:10 40.17595 -102.80804 29910 ft 479 kts 78°
2026-04-26 17:10 40.18263 -102.76521 30190 ft 481 kts 78°
2026-04-26 17:10 40.18931 -102.72218 30486 ft 483 kts 78°
2026-04-26 17:10 40.19600 -102.67908 30757 ft 485 kts 78°
2026-04-26 17:11 40.20271 -102.63567 31021 ft 487 kts 78°
2026-04-26 17:11 40.20942 -102.59214 31290 ft 489 kts 78°
2026-04-26 17:11 40.21615 -102.54840 31544 ft 491 kts 78°
2026-04-26 17:11 40.22287 -102.50457 31836 ft 492 kts 78°
2026-04-26 17:12 40.23625 -102.41701 32612 ft 489 kts 79°
2026-04-26 17:12 40.24289 -102.37335 32960 ft 489 kts 79°
2026-04-26 17:13 40.25612 -102.28608 33572 ft 489 kts 79°
2026-04-26 17:13 40.26272 -102.24239 33894 ft 488 kts 79°
2026-04-26 17:13 40.27583 -102.15516 34401 ft 489 kts 79°
2026-04-26 17:14 40.28237 -102.11152 34638 ft 489 kts 79°
2026-04-26 17:14 40.29541 -102.02409 35137 ft 489 kts 79°
2026-04-26 17:14 40.30191 -101.98032 35362 ft 489 kts 79°
2026-04-26 17:15 40.31486 -101.89276 35823 ft 490 kts 79°
2026-04-26 17:15 40.32132 -101.84891 36053 ft 490 kts 79°
2026-04-26 17:15 40.32768 -101.80565 36276 ft 490 kts 79°
2026-04-26 17:16 40.33409 -101.76189 36487 ft 490 kts 79°
2026-04-26 17:16 40.34059 -101.71741 36695 ft 490 kts 79°
2026-04-26 17:16 40.34689 -101.67418 36903 ft 490 kts 79°
2026-04-26 17:17 40.35968 -101.58603 36925 ft 492 kts 79°
2026-04-26 17:17 40.37237 -101.49812 36917 ft 488 kts 79°
2026-04-26 17:18 40.38487 -101.41109 36918 ft 484 kts 79°
2026-04-26 17:18 40.39730 -101.32452 36925 ft 482 kts 79°
2026-04-26 17:19 40.41601 -101.19404 36931 ft 490 kts 82°
2026-04-26 17:19 40.42850 -101.10546 36948 ft 497 kts 82°
2026-04-26 17:20 40.43898 -101.03111 36926 ft 500 kts 82°
2026-04-26 17:20 40.45377 -100.92606 36938 ft 501 kts 82°
2026-04-26 17:21 40.47017 -100.83691 36932 ft 503 kts 76°
2026-04-26 17:21 40.49021 -100.74900 36928 ft 502 kts 75°
2026-04-26 17:22 40.51022 -100.66126 36924 ft 500 kts 76°
2026-04-26 17:22 40.52929 -100.57356 36926 ft 498 kts 76°
2026-04-26 17:23 40.54779 -100.48619 36933 ft 495 kts 77°
2026-04-26 17:23 40.56610 -100.39908 36931 ft 494 kts 77°
2026-04-26 17:24 40.58424 -100.31272 36931 ft 493 kts 77°
2026-04-26 17:24 40.60245 -100.22579 36927 ft 493 kts 77°
2026-04-26 17:25 40.62060 -100.13879 36943 ft 493 kts 77°
2026-04-26 17:25 40.63874 -100.05151 36926 ft 494 kts 77°
2026-04-26 17:26 40.65680 -99.96427 36930 ft 494 kts 77°
2026-04-26 17:26 40.67478 -99.87703 36927 ft 494 kts 77°
2026-04-26 17:27 40.69269 -99.78974 36922 ft 494 kts 77°
2026-04-26 17:27 40.70848 -99.71250 36923 ft 494 kts 77°
2026-04-26 17:28 40.72377 -99.63742 36925 ft 494 kts 77°
2026-04-26 17:28 40.74153 -99.54986 36928 ft 494 kts 78°
2026-04-26 17:29 40.75625 -99.47702 36926 ft 495 kts 78°
2026-04-26 17:29 40.77675 -99.37512 36925 ft 496 kts 78°
2026-04-26 17:30 40.79439 -99.28702 36920 ft 497 kts 78°
2026-04-26 17:30 40.81198 -99.19882 36831 ft 499 kts 78°
2026-04-26 17:31 40.82083 -99.15428 36341 ft 502 kts 78°
2026-04-26 17:31 40.82972 -99.10949 35994 ft 496 kts 78°
2026-04-26 17:31 40.83831 -99.06617 35583 ft 492 kts 78°
2026-04-26 17:31 40.84690 -99.02270 35177 ft 488 kts 78°
2026-04-26 17:32 40.85543 -98.97947 34775 ft 484 kts 78°
2026-04-26 17:32 40.86387 -98.93655 34378 ft 480 kts 79°
2026-04-26 17:32 40.87221 -98.89405 33988 ft 477 kts 79°
2026-04-26 17:32 40.88049 -98.85175 33543 ft 473 kts 79°
2026-04-26 17:33 40.88868 -98.80980 33123 ft 470 kts 79°
2026-04-26 17:33 40.89678 -98.76825 32727 ft 465 kts 79°
2026-04-26 17:33 40.90480 -98.72698 32339 ft 461 kts 79°
2026-04-26 17:34 40.92061 -98.64546 31590 ft 454 kts 79°
2026-04-26 17:34 40.92839 -98.60521 31217 ft 451 kts 79°
2026-04-26 17:34 40.93611 -98.56514 30841 ft 448 kts 79°
2026-04-26 17:34 40.94376 -98.52544 30478 ft 444 kts 79°
2026-04-26 17:35 40.95135 -98.48590 30117 ft 442 kts 79°
2026-04-26 17:35 40.95887 -98.44669 29701 ft 439 kts 79°
2026-04-26 17:35 40.96634 -98.40766 29293 ft 435 kts 79°
2026-04-26 17:35 40.97372 -98.36906 28920 ft 431 kts 79°
2026-04-26 17:36 40.98103 -98.33071 28523 ft 428 kts 79°
2026-04-26 17:36 40.98893 -98.29290 28195 ft 424 kts 75°
2026-04-26 17:36 40.99813 -98.25611 27934 ft 420 kts 73°
2026-04-26 17:36 41.00803 -98.21997 27658 ft 415 kts 72°
2026-04-26 17:37 41.01805 -98.18443 27395 ft 410 kts 71°
2026-04-26 17:37 41.02798 -98.14915 27066 ft 407 kts 72°
2026-04-26 17:37 41.03769 -98.11412 26711 ft 404 kts 72°
2026-04-26 17:38 41.05663 -98.04439 25982 ft 400 kts 72°
2026-04-26 17:38 41.06581 -98.01013 25627 ft 399 kts 72°
2026-04-26 17:38 41.07501 -97.97561 25271 ft 397 kts 72°
2026-04-26 17:38 41.08418 -97.94112 24920 ft 396 kts 72°
2026-04-26 17:39 41.09329 -97.90679 24546 ft 395 kts 72°
2026-04-26 17:39 41.10238 -97.87245 24198 ft 394 kts 72°
2026-04-26 17:39 41.11143 -97.83826 23826 ft 393 kts 72°
2026-04-26 17:39 41.12048 -97.80404 23449 ft 393 kts 72°
2026-04-26 17:40 41.12950 -97.76987 23037 ft 391 kts 72°
2026-04-26 17:40 41.13254 -97.75839 22909 ft 391 kts 72°
2026-04-26 17:40 41.14737 -97.70211 22291 ft 387 kts 72°
2026-04-26 17:40 41.15621 -97.66854 21930 ft 385 kts 72°
2026-04-26 17:41 41.16500 -97.63508 21571 ft 382 kts 72°
2026-04-26 17:41 41.17371 -97.60188 21222 ft 380 kts 72°
2026-04-26 17:41 41.18238 -97.56879 20872 ft 378 kts 72°
2026-04-26 17:41 41.19097 -97.53592 20520 ft 377 kts 72°
2026-04-26 17:42 41.19954 -97.50312 20178 ft 375 kts 73°
2026-04-26 17:42 41.20805 -97.47053 19827 ft 373 kts 73°
2026-04-26 17:42 41.21652 -97.43802 19480 ft 371 kts 73°
2026-04-26 17:42 41.22494 -97.40565 19138 ft 370 kts 73°
2026-04-26 17:43 41.23329 -97.37349 18796 ft 368 kts 73°
2026-04-26 17:43 41.24160 -97.34151 18516 ft 364 kts 73°
2026-04-26 17:43 41.24986 -97.30961 18080 ft 365 kts 73°
2026-04-26 17:43 41.25811 -97.27774 17702 ft 363 kts 73°
2026-04-26 17:44 41.26628 -97.24614 17358 ft 360 kts 73°
2026-04-26 17:44 41.27436 -97.21483 17066 ft 356 kts 73°
2026-04-26 17:44 41.28235 -97.18389 16728 ft 353 kts 74°
2026-04-26 17:44 41.29027 -97.15311 16402 ft 350 kts 74°
2026-04-26 17:45 41.29811 -97.12263 16063 ft 344 kts 74°
2026-04-26 17:45 41.30574 -97.09299 15744 ft 334 kts 74°
2026-04-26 17:45 41.31315 -97.06414 15443 ft 325 kts 75°
2026-04-26 17:45 41.32025 -97.03647 15134 ft 317 kts 75°
2026-04-26 17:46 41.32735 -97.00868 14837 ft 309 kts 75°
2026-04-26 17:46 41.33408 -96.98233 14560 ft 303 kts 75°
2026-04-26 17:46 41.34085 -96.95573 14280 ft 304 kts 75°
2026-04-26 17:46 41.34767 -96.92894 14004 ft 308 kts 75°
2026-04-26 17:47 41.35458 -96.90177 13716 ft 311 kts 75°
2026-04-26 17:47 41.35692 -96.89255 13602 ft 313 kts 76°
2026-04-26 17:47 41.36513 -96.84781 13383 ft 283 kts 97°
2026-04-26 17:47 41.36212 -96.82305 13201 ft 265 kts 109°
2026-04-26 17:48 41.35904 -96.80707 12928 ft 262 kts 110°
2026-04-26 17:48 41.35447 -96.78363 12477 ft 262 kts 109°
2026-04-26 17:48 41.35031 -96.76036 12058 ft 261 kts 108°
2026-04-26 17:48 41.34625 -96.73692 11653 ft 259 kts 108°
2026-04-26 17:49 41.34222 -96.71358 11250 ft 258 kts 108°
2026-04-26 17:49 41.33821 -96.69042 10845 ft 257 kts 108°
2026-04-26 17:49 41.33419 -96.66731 10443 ft 255 kts 108°
2026-04-26 17:49 41.33020 -96.64440 10065 ft 254 kts 108°
2026-04-26 17:50 41.32621 -96.62156 9675 ft 253 kts 108°
2026-04-26 17:50 41.32224 -96.59890 9301 ft 250 kts 108°
2026-04-26 17:50 41.31830 -96.57646 8927 ft 247 kts 108°
2026-04-26 17:50 41.31440 -96.55431 8548 ft 245 kts 108°
2026-04-26 17:51 41.31052 -96.53227 8167 ft 244 kts 108°
2026-04-26 17:51 41.30666 -96.51043 7809 ft 241 kts 108°
2026-04-26 17:51 41.30286 -96.48889 7470 ft 238 kts 108°
2026-04-26 17:51 41.29908 -96.46751 7124 ft 236 kts 108°
2026-04-26 17:52 41.29534 -96.44642 6799 ft 233 kts 108°
2026-04-26 17:52 41.29163 -96.42552 6461 ft 231 kts 107°
2026-04-26 17:52 41.28794 -96.40473 6099 ft 230 kts 107°
2026-04-26 17:52 41.28429 -96.38421 5726 ft 227 kts 107°
2026-04-26 17:53 41.28067 -96.36380 5383 ft 225 kts 107°
2026-04-26 17:53 41.27708 -96.34365 5036 ft 223 kts 108°
2026-04-26 17:53 41.27356 -96.32388 4812 ft 215 kts 108°
2026-04-26 17:54 41.26718 -96.28793 4627 ft 184 kts 108°
2026-04-26 17:54 41.26437 -96.27174 4375 ft 180 kts 102°
2026-04-26 17:54 41.26578 -96.25510 4078 ft 184 kts 80°
2026-04-26 17:54 41.26988 -96.23890 3757 ft 186 kts 72°
2026-04-26 17:55 41.27666 -96.22397 3423 ft 193 kts 50°
2026-04-26 17:55 41.28722 -96.21300 3141 ft 192 kts 39°
2026-04-26 17:55 41.29799 -96.20276 3034 ft 194 kts 41°
2026-04-26 17:55 41.30840 -96.19202 2985 ft 181 kts 43°
2026-04-26 17:56 41.31791 -96.18215 2972 ft 170 kts 43°
2026-04-26 17:56 41.33610 -96.16335 2981 ft 164 kts 42°
2026-04-26 17:57 41.35435 -96.14466 2997 ft 167 kts 41°
2026-04-26 17:57 41.36353 -96.13531 2996 ft 166 kts 41°
2026-04-26 17:57 41.37272 -96.12598 2990 ft 166 kts 40°
2026-04-26 17:57 41.38187 -96.11672 2989 ft 165 kts 41°
2026-04-26 17:58 41.40903 -96.08927 2985 ft 163 kts 41°
2026-04-26 17:59 41.42634 -96.07179 2983 ft 154 kts 43°
2026-04-26 17:59 41.43273 -96.06061 3003 ft 149 kts 67°
2026-04-26 17:59 41.43609 -96.04769 2985 ft 146 kts 85°
2026-04-26 17:59 41.43554 -96.03473 2975 ft 137 kts 106°
2026-04-26 18:00 41.43123 -96.02347 2994 ft 139 kts 129°
2026-04-26 18:00 41.42447 -96.01442 2982 ft 136 kts 136°
2026-04-26 18:00 41.41736 -96.00595 2998 ft 140 kts 138°
2026-04-26 18:00 41.40978 -95.99772 2996 ft 141 kts 141°
2026-04-26 18:01 41.40192 -95.98987 2966 ft 141 kts 142°
2026-04-26 18:01 41.39394 -95.98218 2916 ft 143 kts 142°
2026-04-26 18:01 41.38581 -95.97444 2716 ft 144 kts 141°
2026-04-26 18:01 41.37766 -95.96671 2521 ft 143 kts 141°
2026-04-26 18:02 41.36962 -95.95908 2342 ft 142 kts 140°
2026-04-26 18:02 41.36420 -95.95393 2229 ft 141 kts 140°
2026-04-26 18:02 41.35364 -95.94392 1937 ft 143 kts 141°
2026-04-26 18:02 41.34554 -95.93630 1785 ft 141 kts 141°
2026-04-26 18:03 41.33772 -95.92877 1580 ft 135 kts 141°
2026-04-26 18:03 41.32998 -95.92138 1395 ft 142 kts 142°
2026-04-26 18:03 41.32192 -95.91369 1204 ft 141 kts 143°
2026-04-26 18:03 41.31402 -95.90620 1020 ft 136 kts 144°
2026-04-26 18:04 41.30699 -95.89959 985 ft 105 kts 144°
2026-04-26 18:04 41.30308 -95.89589 991 ft 34 kts 144°
2026-04-26 18:04 41.30154 -95.89463 988 ft 22 kts 167°
2026-04-26 18:05 41.30032 -95.89501 983 ft 5 kts 310°
2026-04-26 18:05 41.30061 -95.89531 985 ft 5 kts 324°
2026-04-26 18:05 41.30090 -95.89559 985 ft 5 kts 323°
2026-04-26 18:05 41.30118 -95.89587 983 ft 5 kts 323°
2026-04-26 18:06 41.30146 -95.89614 987 ft 5 kts 325°
2026-04-26 18:06 41.30174 -95.89640 989 ft 5 kts 324°
2026-04-26 18:06 41.30202 -95.89666 990 ft 6 kts 324°
2026-04-26 18:06 41.30257 -95.89719 984 ft 11 kts 324°
2026-04-26 18:07 41.30309 -95.89783 984 ft 10 kts 291°
2026-04-26 18:07 41.30296 -95.89855 989 ft 6 kts 237°
2026-04-26 18:07 41.30271 -95.89903 984 ft 6 kts 227°
2026-04-26 18:07 41.30246 -95.89919 991 ft 6 kts 195°
2026-04-26 18:08 41.30208 -95.89918 986 ft 4 kts 162°
2026-04-26 18:08 41.30181 -95.89907 990 ft 4 kts 162°
2026-04-26 18:08 41.30175 -95.89904 989 ft 0 kts 162°